When you browse on this site, cookies collect data to enhance your experience and personalize the content and advertising you see.
Visit our Privacy Policy to learn more. By continuing to use the site, you agree to this use of cookies and data.
  • In Romania
  • List of Countries
  • For 7 days
  • Water Temperature
  • Satellite Maps
  • Weather Map
  • Weather Widgets
  • user-avatar
    Login

    Hourly Weather Zubovka

    Today, 24 March, Sunday

    Time Temperature Precipitation Wind Pressure Humidity
    00:00 -2°C° 0 mm 2 mps 746 mmHg 93%
    01:00 -2°C° 0 mm 2 mps 745 mmHg 93%
    02:00 -2°C° 0 mm 2 mps 745 mmHg 93%
    03:00 -3°C° 0 mm 2 mps 745 mmHg 94%
    04:00 -2°C° 0 mm 1 mps 744 mmHg 94%
    05:00 -3°C° 0 mm 1 mps 744 mmHg 94%
    06:00 -5°C° 0 mm 0 mps 743 mmHg 95%
    07:00 -3°C° 0 mm 1 mps 743 mmHg 94%
    08:00 -2°C° 0 mm 1 mps 743 mmHg 94%
    09:00 -3°C° 0 mm 2 mps 742 mmHg 93%
    10:00 -2°C° 0 mm 2 mps 742 mmHg 93%
    11:00 -2°C° 0 mm 3 mps 741 mmHg 93%
    12:00 -1°C° 0 mm 3 mps 741 mmHg 93%
    13:00 -2°C° 0.3 mm 4 mps 740 mmHg 95%
    14:00 -2°C° 0.3 mm 4 mps 740 mmHg 96%
    15:00 -2°C° 0.3 mm 5 mps 739 mmHg 97%
    16:00 -2°C° 0.3 mm 5 mps 739 mmHg 96%
    17:00 -2°C° 0.3 mm 5 mps 739 mmHg 95%
    18:00 -1°C° 0.3 mm 5 mps 738 mmHg 94%
    19:00 -2°C° 0 mm 4 mps 738 mmHg 94%
    20:00 -2°C° 0 mm 4 mps 738 mmHg 93%
    21:00 -2°C° 0 mm 4 mps 738 mmHg 93%
    22:00 -2°C° 0 mm 4 mps 738 mmHg 92%
    23:00 -3°C° 0 mm 4 mps 738 mmHg 92%

    Tomorrow, 25 March, Monday

    Time Temperature Precipitation Wind Pressure Humidity
    00:00 -4°C° 0 mm 4 mps 738 mmHg 91%
    01:00 -4°C° 0 mm 4 mps 738 mmHg 91%
    02:00 -4°C° 0 mm 4 mps 738 mmHg 90%
    03:00 -5°C° 0 mm 4 mps 738 mmHg 90%
    04:00 -5°C° 0 mm 4 mps 738 mmHg 90%
    05:00 -5°C° 0 mm 4 mps 738 mmHg 90%
    06:00 -7°C° 0 mm 4 mps 738 mmHg 90%
    07:00 -5°C° 0 mm 4 mps 738 mmHg 89%
    08:00 -4°C° 0 mm 4 mps 739 mmHg 88%
    09:00 -3°C° 0 mm 4 mps 739 mmHg 87%
    10:00 -3°C° 0 mm 4 mps 739 mmHg 88%
    11:00 -2°C° 0 mm 4 mps 739 mmHg 89%
    12:00 -1°C° 0 mm 4 mps 739 mmHg 90%
    13:00 -1°C° 0 mm 4 mps 739 mmHg 91%
    14:00 0°C° 0 mm 3 mps 739 mmHg 92%
    15:00 0°C° 0 mm 3 mps 739 mmHg 94%
    16:00 0°C° 0 mm 3 mps 739 mmHg 91%
    17:00 0°C° 0 mm 3 mps 739 mmHg 88%
    18:00 -1°C° 0 mm 3 mps 739 mmHg 85%
    19:00 -1°C° 0 mm 3 mps 740 mmHg 85%
    20:00 -2°C° 0 mm 3 mps 740 mmHg 85%
    21:00 -4°C° 0 mm 3 mps 740 mmHg 86%
    22:00 -4°C° 0 mm 3 mps 740 mmHg 85%
    23:00 -4°C° 0 mm 3 mps 740 mmHg 85%

    Day after tomorrow, 26 March, Tuesday

    Time Temperature Precipitation Wind Pressure Humidity
    00:00 -4°C° 0 mm 3 mps 740 mmHg 85%
    01:00 -5°C° 0 mm 3 mps 740 mmHg 84%
    02:00 -5°C° 0 mm 3 mps 740 mmHg 84%
    03:00 -5°C° 0 mm 3 mps 740 mmHg 84%
    04:00 -5°C° 0 mm 3 mps 740 mmHg 86%
    05:00 -5°C° 0 mm 3 mps 739 mmHg 87%
    06:00 -5°C° 0 mm 3 mps 739 mmHg 88%
    07:00 -4°C° 0 mm 3 mps 739 mmHg 89%
    08:00 -2°C° 0 mm 3 mps 739 mmHg 90%
    09:00 -1°C° 0 mm 3 mps 739 mmHg 91%
    10:00 -1°C° 0.2 mm 3 mps 738 mmHg 94%
    11:00 0°C° 0.2 mm 3 mps 738 mmHg 96%
    12:00 0°C° 0.2 mm 3 mps 737 mmHg 99%
    13:00 0°C° 0 mm 3 mps 737 mmHg 98%
    14:00 0°C° 0 mm 3 mps 736 mmHg 98%
    15:00 -1°C° 0 mm 4 mps 736 mmHg 98%
    16:00 -1°C° 0.1 mm 4 mps 735 mmHg 98%
    17:00 -1°C° 0.1 mm 5 mps 735 mmHg 97%
    18:00 -1°C° 0.1 mm 5 mps 735 mmHg 97%
    19:00 -2°C° 0.2 mm 6 mps 735 mmHg 94%
    20:00 -2°C° 0.2 mm 6 mps 735 mmHg 92%
    21:00 -3°C° 0.2 mm 6 mps 735 mmHg 89%
    22:00 -3°C° 0 mm 6 mps 735 mmHg 88%
    23:00 -4°C° 0 mm 6 mps 735 mmHg 88%

    27 March, Wednesday

    Time Temperature Precipitation Wind Pressure Humidity
    00:00 -4°C° 0 mm 6 mps 735 mmHg 87%
    01:00 -4°C° 0.5 mm 6 mps 736 mmHg 88%
    02:00 -5°C° 0.5 mm 6 mps 736 mmHg 89%
    03:00 -5°C° 0.5 mm 6 mps 736 mmHg 90%
    04:00 -6°C° 0 mm 6 mps 737 mmHg 88%
    05:00 -8°C° 0 mm 6 mps 737 mmHg 87%
    06:00 -7°C° 0 mm 5 mps 737 mmHg 85%
    07:00 -8°C° 0 mm 6 mps 737 mmHg 84%
    08:00 -8°C° 0 mm 6 mps 737 mmHg 82%
    09:00 -8°C° 0 mm 7 mps 738 mmHg 81%
    10:00 -7°C° 0 mm 7 mps 738 mmHg 80%
    11:00 -6°C° 0 mm 8 mps 738 mmHg 80%
    12:00 -6°C° 0 mm 8 mps 738 mmHg 79%
    13:00 -6°C° 0.4 mm 9 mps 739 mmHg 82%
    14:00 -6°C° 0.4 mm 9 mps 739 mmHg 85%
    15:00 -6°C° 0.4 mm 9 mps 739 mmHg 87%
    16:00 -5°C° 0.3 mm 9 mps 740 mmHg 87%
    17:00 -5°C° 0.3 mm 9 mps 740 mmHg 86%
    18:00 -5°C° 0.3 mm 9 mps 741 mmHg 85%
    19:00 -5°C° 0.1 mm 9 mps 742 mmHg 84%
    20:00 -5°C° 0.1 mm 8 mps 742 mmHg 83%
    21:00 -6°C° 0.1 mm 8 mps 743 mmHg 82%
    22:00 -6°C° 0 mm 7 mps 744 mmHg 83%
    23:00 -7°C° 0 mm 7 mps 744 mmHg 84%

    28 March, Thursday

    Time Temperature Precipitation Wind Pressure Humidity
    00:00 -6°C° 0 mm 6 mps 745 mmHg 86%
    01:00 -6°C° 0 mm 6 mps 745 mmHg 86%
    02:00 -8°C° 0 mm 6 mps 746 mmHg 86%
    03:00 -8°C° 0 mm 6 mps 747 mmHg 86%
    04:00 -8°C° 0 mm 6 mps 747 mmHg 87%
    05:00 -8°C° 0 mm 5 mps 747 mmHg 87%
    06:00 -8°C° 0 mm 5 mps 748 mmHg 88%
    07:00 -7°C° 0 mm 5 mps 748 mmHg 86%
    08:00 -7°C° 0 mm 5 mps 748 mmHg 85%
    09:00 -6°C° 0 mm 5 mps 749 mmHg 83%
    10:00 -5°C° 0 mm 5 mps 749 mmHg 81%
    11:00 -4°C° 0 mm 5 mps 749 mmHg 79%
    12:00 -3°C° 0 mm 6 mps 749 mmHg 77%
    13:00 -3°C° 0 mm 6 mps 748 mmHg 78%
    14:00 -2°C° 0 mm 6 mps 748 mmHg 78%
    15:00 -2°C° 0 mm 6 mps 747 mmHg 78%
    16:00 -1°C° 0 mm 5 mps 747 mmHg 78%
    17:00 -1°C° 0 mm 5 mps 747 mmHg 77%
    18:00 -1°C° 0 mm 5 mps 746 mmHg 76%
    19:00 -1°C° 0 mm 5 mps 746 mmHg 76%
    20:00 -1°C° 0 mm 5 mps 746 mmHg 77%
    21:00 -1°C° 0 mm 5 mps 746 mmHg 77%
    22:00 -1°C° 0 mm 5 mps 745 mmHg 79%
    23:00 -1°C° 0 mm 5 mps 745 mmHg 82%

    29 March, Friday

    Time Temperature Precipitation Wind Pressure Humidity
    00:00 -2°C° 0 mm 6 mps 744 mmHg 84%
    01:00 -2°C° 0 mm 6 mps 744 mmHg 86%
    02:00 -2°C° 0 mm 6 mps 744 mmHg 87%
    03:00 -2°C° 0 mm 6 mps 743 mmHg 89%
    04:00 -2°C° 0.1 mm 6 mps 743 mmHg 90%
    05:00 -2°C° 0.1 mm 6 mps 743 mmHg 90%
    06:00 -2°C° 0.1 mm 6 mps 743 mmHg 91%
    07:00 -2°C° 0.1 mm 6 mps 743 mmHg 92%
    08:00 -2°C° 0.1 mm 6 mps 743 mmHg 93%
    09:00 -1°C° 0.1 mm 6 mps 743 mmHg 94%
    10:00 -1°C° 0 mm 6 mps 743 mmHg 95%
    11:00 -1°C° 0 mm 6 mps 743 mmHg 95%
    12:00 -1°C° 0 mm 6 mps 743 mmHg 95%
    13:00 +1°C° 0 mm 6 mps 743 mmHg 93%
    14:00 +1°C° 0 mm 6 mps 743 mmHg 91%
    15:00 +1°C° 0 mm 6 mps 743 mmHg 88%
    16:00 +1°C° 0 mm 6 mps 743 mmHg 88%
    17:00 +1°C° 0 mm 5 mps 743 mmHg 87%
    18:00 +1°C° 0 mm 4 mps 744 mmHg 86%
    19:00 0°C° 0 mm 4 mps 744 mmHg 87%
    20:00 +1°C° 0 mm 3 mps 744 mmHg 88%
    21:00 0°C° 0 mm 3 mps 745 mmHg 89%
    22:00 0°C° 0 mm 3 mps 745 mmHg 89%
    23:00 0°C° 0 mm 3 mps 745 mmHg 89%
    Show more